FW6365 Weather Reports


time (UTC)temp
C
wind
direction
speed
KPH
gust
KPH
rain 1hr
cm
rain 24hr
cm
rain mn
cm
humidity
%
barometer
mb
20260508041610 11 165 0.0 1.6 0.00 0.00 0.00 84 1017.4
20260508041024 11 165 0.0 1.6 0.00 0.00 0.00 83 1017.5
20260508040524 12 166 0.0 1.6 0.00 0.00 0.00 84 1017.4
20260508040104 12 0 0.0 1.6 0.00 0.00 0.00 82 1017.4
20260508035527 12 0 0.0 1.6 0.00 0.00 0.00 79 1017.3
20260508035027 12 0 0.0 1.6 0.00 0.00 0.00 78 1017.2
20260508034541 13 0 0.0 1.6 0.00 0.00 0.00 78 1017.2
20260508034025 13 0 0.0 1.6 0.00 0.00 0.00 77 1017.1
20260508033524 13 126 0.0 3.2 0.00 0.00 0.00 76 1016.9
20260508033040 13 193 1.6 4.8 0.00 0.00 0.00 75 1016.8
20260508032525 14 205 1.6 4.8 0.00 0.00 0.00 73 1016.8
20260508032025 14 142 1.6 3.2 0.00 0.00 0.00 73 1016.9
20260508031540 15 151 1.6 3.2 0.00 0.00 0.00 72 1016.9
20260508031024 15 236 0.0 6.4 0.00 0.00 0.00 71 1016.8
20260508030528 15 219 1.6 6.4 0.00 0.00 0.00 71 1016.8
20260508030047 16 219 1.6 4.8 0.00 0.00 0.00 69 1016.7
20260508025524 16 217 1.6 9.7 0.00 0.00 0.00 69 1016.7
20260508025026 16 244 3.2 9.7 0.00 0.00 0.00 67 1016.6
20260508024546 17 311 1.6 4.8 0.00 0.00 0.00 66 1016.6
20260508024026 17 270 0.0 12.9 0.00 0.00 0.00 65 1016.5
20260508023528 18 281 3.2 12.9 0.00 0.00 0.00 63 1016.5
20260508023041 18 277 4.8 14.5 0.00 0.00 0.00 60 1016.6
20260508022526 19 341 4.8 14.5 0.00 0.00 0.00 58 1016.5
20260508022026 20 294 1.6 6.4 0.00 0.00 0.00 55 1016.5
20260508021540 21 172 0.0 1.6 0.00 0.00 0.00 54 1016.4
20260508021025 20 142 0.0 4.8 0.00 0.00 0.00 56 1016.5
20260508020627 20 142 1.6 4.8 0.00 0.00 0.00 55 1016.6
20260508020045 19 0 0.0 4.8 0.00 0.00 0.00 56 1016.6
20260508015525 19 92 0.0 4.8 0.00 0.00 0.00 56 1016.6
20260508015025 19 10 1.6 14.5 0.00 0.00 0.00 56 1016.6
20260508014541 19 16 3.2 14.5 0.00 0.00 0.00 56 1016.7
20260508014026 20 338 3.2 11.3 0.00 0.00 0.00 55 1016.7
20260508013527 20 336 4.8 11.3 0.00 0.00 0.00 55 1016.8
20260508013048 20 331 0.0 4.8 0.00 0.00 0.00 57 1016.8
20260508012525 20 309 1.6 6.4 0.00 0.00 0.00 53 1017.0
20260508012026 20 319 1.6 6.4 0.00 0.00 0.00 54 1017.0
20260508011551 21 0 0.0 3.2 0.00 0.00 0.00 53 1017.0
20260508011025 20 157 0.0 4.8 0.00 0.00 0.00 59 1017.0
20260508010525 20 138 0.0 4.8 0.00 0.00 0.00 56 1017.1
20260508010042 19 115 3.2 4.8 0.00 0.00 0.00 55 1017.1
20260508005526 19 94 0.0 11.3 0.00 0.00 0.00 56 1017.1
20260508005028 20 98 4.8 11.3 0.00 0.00 0.00 56 1017.2
20260508004543 20 109 0.0 4.8 0.00 0.00 0.00 56 1017.2
20260508004026 20 342 0.0 4.8 0.00 0.00 0.00 55 1017.3
20260508003525 20 107 1.6 4.8 0.00 0.00 0.00 53 1017.3
20260508003041 20 104 1.6 8.0 0.00 0.00 0.00 54 1017.3
20260508002525 20 257 1.6 8.0 0.00 0.00 0.00 55 1017.4
20260508002026 20 199 3.2 8.0 0.00 0.00 0.00 56 1017.5
20260508001542 20 246 4.8 8.0 0.00 0.00 0.00 54 1017.6
20260508001025 21 174 0.0 4.8 0.00 0.00 0.00 53 1017.4
20260508000526 20 266 0.0 4.8 0.00 0.00 0.00 58 1017.6
20260508000038 20 229 1.6 6.4 0.00 0.00 0.00 54 1017.6
20260507235525 20 245 0.0 6.4 0.00 0.00 0.00 57 1017.6
20260507235025 19 238 3.2 6.4 0.00 0.00 0.00 55 1017.6
20260507234541 19 0 1.6 8.0 0.00 0.00 0.00 55 1017.7
20260507234025 19 138 3.2 8.0 0.00 0.00 0.00 56 1017.8
20260507233526 19 150 4.8 8.0 0.00 0.00 0.00 55 1017.8
20260507233054 19 138 1.6 4.8 0.00 0.00 0.00 55 1017.9
20260507232525 19 123 1.6 6.4 0.00 0.00 0.00 58 1018.0
20260507232025 18 0 3.2 11.3 0.00 0.00 0.00 57 1018.1
20260507231540 18 282 3.2 11.3 0.00 0.00 0.00 56 1018.1
20260507231025 18 284 4.8 11.3 0.00 0.00 0.00 56 1018.1
20260507230526 18 242 3.2 11.3 0.00 0.00 0.00 56 1018.2
20260507230040 18 234 3.2 11.3 0.00 0.00 0.00 58 1018.3
20260507225527 18 278 4.8 8.0 0.00 0.00 0.00 56 1018.3
20260507225029 18 289 3.2 6.4 0.00 0.00 0.00 56 1018.3
20260507224553 18 246 1.6 6.4 0.00 0.00 0.00 57 1018.5
20260507224025 18 294 3.2 9.7 0.00 0.00 0.00 56 1018.6
20260507223527 18 227 4.8 12.9 0.00 0.00 0.00 62 1018.6
20260507223042 18 222 6.4 12.9 0.00 0.00 0.00 57 1018.5
20260507222528 19 132 4.8 12.9 0.00 0.00 0.00 59 1018.6
20260507222025 18 67 1.6 4.8 0.00 0.00 0.00 61 1018.7
20260507221540 18 65 1.6 12.9 0.00 0.00 0.00 58 1018.8
20260507221024 18 107 4.8 12.9 0.00 0.00 0.00 59 1018.9
20260507220526 18 173 3.2 9.7 0.00 0.00 0.00 60 1019.1
20260507220042 17 269 3.2 6.4 0.00 0.00 0.00 60 1019.0
20260507215529 17 250 3.2 6.4 0.00 0.00 0.00 63 1019.2
20260507215025 17 241 3.2 12.9 0.00 0.00 0.00 60 1019.3
20260507214541 17 276 4.8 12.9 0.00 0.00 0.00 64 1019.2
20260507214028 17 280 4.8 12.9 0.00 0.00 0.00 61 1019.2
20260507213525 17 42 1.6 11.3 0.00 0.00 0.00 64 1019.2
20260507213041 17 299 3.2 11.3 0.00 0.00 0.00 62 1019.3
20260507212525 17 270 3.2 9.7 0.00 0.00 0.00 62 1019.2
20260507212025 17 60 1.6 14.5 0.00 0.00 0.00 64 1019.3
20260507211542 16 313 6.4 14.5 0.00 0.00 0.00 63 1019.4
20260507211027 16 316 8.0 14.5 0.00 0.00 0.00 61 1019.3
20260507210525 17 294 3.2 12.9 0.00 0.00 0.00 63 1019.5
20260507210049 17 128 1.6 9.7 0.00 0.00 0.00 62 1019.6
20260507205525 17 242 4.8 9.7 0.00 0.00 0.00 61 1019.7
20260507205026 17 76 1.6 8.0 0.00 0.00 0.00 65 1019.7
20260507204545 16 162 3.2 12.9 0.00 0.00 0.00 64 1019.8
20260507204025 16 39 4.8 16.1 0.00 0.00 0.00 66 1019.9
20260507203526 16 345 3.2 16.1 0.00 0.00 0.00 65 1020.0
20260507203043 16 252 6.4 16.1 0.00 0.00 0.00 65 1020.0
20260507202525 16 296 3.2 9.7 0.00 0.00 0.00 65 1020.1
20260507202025 16 255 1.6 11.3 0.00 0.00 0.00 63 1020.1
20260507201540 16 136 3.2 12.9 0.00 0.00 0.00 63 1020.2
20260507201025 16 213 8.0 12.9 0.00 0.00 0.00 64 1020.1
20260507200527 16 157 4.8 12.9 0.00 0.00 0.00 63 1020.2
20260507200048 16 156 3.2 16.1 0.00 0.00 0.00 66 1020.3
20260507195525 16 119 6.4 16.1 0.00 0.00 0.00 64 1020.3
20260507195028 16 128 6.4 16.1 0.00 0.00 0.00 64 1020.4
20260507194613 16 155 4.8 16.1 0.00 0.00 0.00 67 1020.4
20260507194027 16 107 6.4 16.1 0.00 0.00 0.00 64 1020.5
20260507193527 16 240 6.4 19.3 0.00 0.00 0.00 65 1020.6
20260507193043 16 162 11.3 19.3 0.00 0.00 0.00 65 1020.6
20260507192528 16 119 4.8 12.9 0.00 0.00 0.00 65 1020.7
20260507192027 16 123 6.4 16.1 0.00 0.00 0.00 65 1020.6
20260507191540 15 39 4.8 16.1 0.00 0.00 0.00 71 1020.7
20260507191026 15 123 6.4 16.1 0.00 0.00 0.00 67 1020.7
20260507190527 15 122 6.4 16.1 0.00 0.00 0.00 68 1020.7
20260507190048 15 142 9.7 17.7 0.00 0.00 0.00 69 1020.6
20260507185528 15 150 9.7 17.7 0.00 0.00 0.00 67 1020.8
20260507185027 15 124 3.2 16.1 0.00 0.00 0.00 67 1020.8
20260507184540 15 94 4.8 16.1 0.00 0.00 0.00 66 1020.8
20260507184028 14 100 3.2 14.5 0.00 0.00 0.00 68 1020.8
20260507183527 15 98 8.0 14.5 0.00 0.00 0.00 67 1020.9
20260507183047 15 83 8.0 16.1 0.00 0.00 0.00 65 1020.9
20260507182527 15 190 4.8 16.1 0.00 0.00 0.00 67 1020.9
20260507182027 15 72 4.8 16.1 0.00 0.00 0.00 66 1020.9
20260507181551 15 237 4.8 11.3 0.00 0.00 0.00 70 1021.0
20260507181030 15 259 4.8 11.3 0.00 0.00 0.00 70 1021.0
20260507180527 15 157 4.8 11.3 0.00 0.00 0.00 68 1021.1
20260507180042 15 184 1.6 14.5 0.00 0.00 0.00 70 1021.0
20260507175530 14 157 6.4 17.7 0.00 0.00 0.00 70 1021.1
20260507175029 14 229 9.7 17.7 0.00 0.00 0.00 73 1021.1
20260507174552 13 180 6.4 12.9 0.00 0.00 0.00 71 1021.1
20260507174029 13 131 4.8 16.1 0.00 0.00 0.00 73 1021.1
20260507173526 13 227 6.4 16.1 0.00 0.00 0.00 73 1021.1
20260507173103 13 113 6.4 16.1 0.00 0.00 0.00 72 1021.3
20260507172528 13 120 4.8 14.5 0.00 0.00 0.00 72 1021.1
20260507172028 13 121 4.8 14.5 0.00 0.00 0.00 75 1021.2
20260507171546 12 138 6.4 14.5 0.00 0.00 0.00 73 1021.1
20260507171028 12 148 8.0 14.5 0.00 0.00 0.00 73 1021.2
20260507170528 12 119 3.2 9.7 0.00 0.00 0.00 75 1021.3
20260507170100 12 153 4.8 11.3 0.00 0.00 0.00 76 1021.4
20260507165527 12 113 6.4 11.3 0.00 0.00 0.00 75 1021.3
20260507165027 12 122 4.8 11.3 0.00 0.00 0.00 75 1021.4
20260507164549 12 134 6.4 11.3 0.00 0.00 0.00 76 1021.4
20260507164025 12 96 6.4 11.3 0.00 0.00 0.00 74 1021.4
20260507163524 12 163 3.2 12.9 0.00 0.00 0.00 77 1021.4
20260507163041 12 126 3.2 12.9 0.00 0.00 0.00 75 1021.4
20260507162525 12 117 4.8 11.3 0.00 0.00 0.00 75 1021.3
20260507162025 12 158 4.8 8.0 0.00 0.00 0.00 76 1021.4
20260507161556 12 176 1.6 8.0 0.00 0.00 0.00 78 1021.5
20260507161025 12 240 1.6 6.4 0.00 0.00 0.00 79 1021.5
20260507160525 11 234 3.2 6.4 0.00 0.00 0.00 77 1021.6
20260507160042 11 200 1.6 6.4 0.00 0.00 0.00 79 1021.6
20260507155525 11 139 3.2 6.4 0.00 0.00 0.00 79 1021.6
20260507155025 11 168 1.6 8.0 0.00 0.00 0.00 80 1021.7
20260507154542 11 277 3.2 8.0 0.00 0.00 0.00 79 1021.8
20260507154027 11 194 1.6 4.8 0.00 0.00 0.00 80 1021.7
20260507153525 10 248 3.2 6.4 0.00 0.00 0.00 79 1021.7
20260507153045 10 213 3.2 6.4 0.00 0.00 0.00 81 1021.7
20260507152528 10 244 1.6 6.4 0.00 0.00 0.00 81 1021.7
20260507152025 10 238 3.2 6.4 0.00 0.00 0.00 81 1021.7
20260507151541 10 167 1.6 4.8 0.00 0.00 0.00 82 1021.7
20260507151024 10 223 1.6 4.8 0.00 0.00 0.00 82 1021.6
20260507150528 10 208 1.6 6.4 0.00 0.00 0.00 82 1021.6
20260507150042 10 214 1.6 9.7 0.00 0.00 0.00 83 1021.7
20260507145524 10 201 4.8 9.7 0.00 0.00 0.00 83 1021.7
20260507145024 10 190 3.2 6.4 0.00 0.00 0.00 83 1021.7
20260507144542 10 161 3.2 6.4 0.00 0.00 0.00 84 1021.6
20260507144025 10 211 3.2 4.8 0.00 0.00 0.00 83 1021.6
20260507143525 10 223 1.6 4.8 0.00 0.00 0.00 84 1021.6
20260507143044 10 213 1.6 6.4 0.00 0.00 0.00 85 1021.6
20260507142524 9 191 1.6 8.0 0.00 0.00 0.00 85 1021.6
20260507142024 9 164 4.8 8.0 0.00 0.00 0.00 85 1021.6
20260507141604 9 202 4.8 9.7 0.00 0.00 0.00 85 1021.5
20260507141025 9 208 3.2 9.7 0.00 0.00 0.00 85 1021.5
20260507140525 9 162 3.2 8.0 0.00 0.00 0.00 85 1021.5
20260507140044 9 180 3.2 8.0 0.00 0.00 0.00 85 1021.4
20260507135525 9 189 1.6 6.4 0.00 0.00 0.00 85 1021.5
20260507135025 9 207 3.2 6.4 0.00 0.00 0.00 85 1021.4
20260507134544 9 188 1.6 8.0 0.00 0.00 0.00 85 1021.4
20260507134024 9 188 3.2 8.0 0.00 0.00 0.00 85 1021.3
20260507133527 9 149 1.6 4.8 0.00 0.00 0.00 85 1021.3
20260507133042 8 244 3.2 8.0 0.00 0.00 0.00 86 1021.3
20260507132529 8 193 1.6 8.0 0.00 0.00 0.00 86 1021.1
20260507132026 8 200 0.0 4.8 0.00 0.00 0.00 87 1021.2
20260507131539 8 228 0.0 4.8 0.00 0.00 0.00 86 1021.3
20260507131027 8 163 1.6 6.4 0.00 0.00 0.00 86 1021.2
20260507130526 8 177 3.2 6.4 0.00 0.00 0.00 86 1021.2
20260507130039 8 182 3.2 6.4 0.00 0.00 0.00 86 1021.2
20260507125529 8 186 3.2 6.4 0.00 0.00 0.00 86 1021.1
20260507125027 8 175 1.6 3.2 0.00 0.00 0.00 86 1021.1
20260507124547 8 184 0.0 3.2 0.00 0.00 0.00 86 1021.1
20260507124027 8 196 1.6 6.4 0.00 0.00 0.00 85 1021.1
20260507123527 9 205 1.6 6.4 0.00 0.00 0.00 85 1021.1
20260507123045 8 207 1.6 6.4 0.00 0.00 0.00 86 1021.1
20260507122527 8 197 1.6 6.4 0.00 0.00 0.00 87 1021.2
20260507122027 8 177 0.0 4.8 0.00 0.00 0.00 86 1021.3
20260507121544 8 177 1.6 4.8 0.00 0.00 0.00 86 1021.2
20260507121027 8 153 1.6 4.8 0.00 0.00 0.00 86 1021.3
20260507120526 8 164 1.6 6.4 0.00 0.00 0.00 85 1021.2
20260507120046 8 177 3.2 8.0 0.00 0.00 0.00 85 1021.3
20260507115527 9 188 4.8 8.0 0.00 0.00 0.00 85 1021.4
20260507115026 9 151 1.6 6.4 0.00 0.00 0.00 85 1021.4
20260507114542 9 168 3.2 6.4 0.00 0.00 0.00 85 1021.5
20260507114027 9 221 1.6 8.0 0.00 0.00 0.00 85 1021.5
20260507113527 9 201 3.2 8.0 0.00 0.00 0.00 85 1021.4
20260507113046 9 206 3.2 6.4 0.00 0.00 0.00 85 1021.3
20260507112526 9 196 3.2 8.0 0.00 0.00 0.00 85 1021.4
20260507112026 9 193 3.2 8.0 0.00 0.00 0.00 85 1021.4
20260507111539 10 185 3.2 6.4 0.00 0.00 0.00 85 1021.6
20260507111026 10 225 4.8 6.4 0.00 0.00 0.00 85 1021.6
20260507110528 10 180 3.2 6.4 0.00 0.00 0.00 85 1021.6
20260507110046 10 220 3.2 8.0 0.00 0.00 0.00 85 1021.6
20260507105527 10 208 3.2 8.0 0.00 0.00 0.00 84 1021.7
20260507105027 10 227 1.6 6.4 0.00 0.00 0.00 84 1021.5
20260507104542 10 237 3.2 6.4 0.00 0.00 0.00 85 1021.6
20260507104027 10 163 3.2 8.0 0.00 0.00 0.00 85 1021.6
20260507103527 10 215 4.8 11.3 0.00 0.00 0.00 85 1021.6
20260507103041 10 205 6.4 11.3 0.00 0.00 0.00 85 1021.7
20260507102528 10 210 4.8 9.7 0.00 0.00 0.00 84 1021.6
20260507102028 10 211 4.8 9.7 0.00 0.00 0.00 84 1021.7
20260507101541 10 195 3.2 9.7 0.00 0.00 0.00 84 1021.7
20260507101026 10 177 3.2 9.7 0.00 0.00 0.00 85 1021.7
20260507100526 10 209 6.4 9.7 0.00 0.00 0.00 85 1021.7
20260507100042 10 222 4.8 9.7 0.00 0.00 0.00 84 1021.7
20260507095526 10 201 3.2 8.0 0.00 0.00 0.00 84 1021.8
20260507095027 10 216 3.2 8.0 0.00 0.00 0.00 84 1021.7
20260507094544 10 219 4.8 8.0 0.00 0.00 0.00 84 1021.7
20260507094026 10 199 3.2 9.7 0.00 0.00 0.00 85 1021.8
20260507093529 10 196 3.2 9.7 0.00 0.00 0.00 85 1021.8
20260507093044 10 216 3.2 9.7 0.00 0.00 0.00 84 1021.9
20260507092526 10 220 4.8 9.7 0.00 0.00 0.00 85 1021.9
20260507092030 10 184 3.2 8.0 0.00 0.00 0.00 85 1021.9
20260507091545 10 227 4.8 8.0 0.00 0.00 0.00 85 1021.9
20260507091028 10 195 4.8 8.0 0.00 0.00 0.00 85 1021.8
20260507090527 10 196 4.8 8.0 0.00 0.00 0.00 85 1021.9
20260507090044 10 205 3.2 11.3 0.00 0.00 0.00 85 1022.0
20260507085526 10 214 3.2 11.3 0.00 0.00 0.00 85 1022.0
20260507085028 10 196 6.4 11.3 0.00 0.00 0.00 85 1022.1
20260507084540 10 165 6.4 11.3 0.00 0.00 0.00 85 1022.0
20260507084026 10 236 6.4 11.3 0.00 0.00 0.00 85 1022.0
20260507083527 10 199 6.4 11.3 0.00 0.00 0.00 85 1022.0
20260507083040 10 206 6.4 11.3 0.00 0.00 0.00 85 1022.1
20260507082528 10 224 4.8 11.3 0.00 0.00 0.00 86 1022.1
20260507082026 10 221 6.4 12.9 0.00 0.00 0.00 85 1022.0
20260507081544 10 213 6.4 12.9 0.00 0.00 0.00 85 1022.0
20260507081026 10 213 4.8 12.9 0.00 0.00 0.00 85 1022.0
20260507080526 10 216 6.4 12.9 0.00 0.00 0.00 85 1021.9
20260507080044 10 219 8.0 12.9 0.00 0.00 0.00 85 1021.9
20260507075526 10 202 8.0 14.5 0.00 0.00 0.00 85 1021.9
20260507075027 10 215 4.8 14.5 0.00 0.00 0.00 85 1022.0
20260507074543 10 168 4.8 12.9 0.00 0.00 0.00 85 1022.0
20260507074028 11 202 8.0 12.9 0.00 0.00 0.00 85 1021.9
20260507073526 11 216 6.4 12.9 0.00 0.00 0.00 85 1022.0
20260507073050 10 210 4.8 11.3 0.00 0.00 0.00 85 1021.9
20260507072527 11 202 4.8 11.3 0.00 0.00 0.00 85 1021.9
20260507072027 11 219 4.8 11.3 0.00 0.00 0.00 85 1021.9
20260507071540 11 189 6.4 11.3 0.00 0.00 0.00 84 1021.9
20260507071026 11 218 6.4 11.3 0.00 0.00 0.00 84 1021.9
20260507070527 11 202 4.8 11.3 0.00 0.00 0.00 84 1021.9
20260507070043 11 209 6.4 11.3 0.00 0.00 0.00 85 1021.8
20260507065526 11 190 6.4 9.7 0.00 0.00 0.00 84 1022.0
20260507065026 11 198 6.4 12.9 0.00 0.00 0.00 84 1022.0
20260507064546 11 195 6.4 12.9 0.00 0.00 0.00 84 1022.0
20260507064027 11 219 6.4 12.9 0.00 0.00 0.00 84 1022.0
20260507063526 11 197 6.4 11.3 0.00 0.00 0.00 84 1022.0
20260507063046 11 182 3.2 9.7 0.00 0.00 0.00 84 1022.0
20260507062531 11 205 4.8 9.7 0.00 0.00 0.00 84 1022.0
20260507062026 11 211 3.2 6.4 0.00 0.00 0.00 84 1022.1
20260507061542 11 200 3.2 8.0 0.00 0.00 0.00 84 1022.1
20260507061026 11 185 4.8 9.7 0.00 0.00 0.00 84 1022.2
20260507060526 11 189 3.2 9.7 0.00 0.00 0.00 83 1022.1
20260507060043 11 181 3.2 9.7 0.00 0.00 0.00 82 1022.1
20260507055528 11 204 4.8 9.7 0.00 0.00 0.00 82 1022.1
20260507055027 11 184 4.8 11.3 0.00 0.00 0.00 82 1022.1
20260507054540 11 188 6.4 11.3 0.00 0.00 0.00 82 1022.1
20260507054028 11 226 4.8 11.3 0.00 0.00 0.00 82 1022.2
20260507053526 11 217 4.8 11.3 0.00 0.00 0.00 82 1022.0
20260507053041 11 202 4.8 11.3 0.00 0.00 0.00 82 1022.1
20260507052526 11 200 3.2 11.3 0.00 0.00 0.00 82 1022.1
20260507052029 11 211 4.8 9.7 0.00 0.00 0.00 82 1022.1
20260507051540 11 207 4.8 8.0 0.00 0.00 0.00 82 1022.1
20260507051030 11 226 3.2 12.9 0.00 0.00 0.00 82 1022.2
20260507050526 11 194 6.4 12.9 0.00 0.00 0.00 82 1022.2
20260507050045 11 203 4.8 11.3 0.00 0.00 0.00 82 1022.1
20260507045526 11 193 6.4 11.3 0.00 0.00 0.00 83 1022.3
20260507045026 11 159 4.8 9.7 0.00 0.00 0.00 84 1022.2
20260507044542 11 234 4.8 9.7 0.00 0.00 0.00 84 1022.2
20260507044025 11 195 3.2 8.0 0.00 0.00 0.00 84 1022.3
20260507043526 11 203 3.2 11.3 0.00 0.00 0.00 84 1022.2
20260507043044 11 213 6.4 11.3 0.00 0.00 0.00 84 1022.2
20260507042526 11 196 4.8 9.7 0.00 0.00 0.00 84 1022.1
20260507042026 11 242 3.2 9.7 0.00 0.00 0.00 84 1022.1